iso_date,epoch_date,Year,Hour,Min,DOY,POS_DOY,Lat,Lon,BP,Ts,Ta,has_bp,has_ts,has_ta,BuoyID,Buoy_Type,Buoy_Owner,Logistics,Hemisphere
2019-10-02T14:51:56Z,1570027916,2019,14,52,275.6194,275.6194,85.17819,134.31977,-999.00,-0.32,-999.0,no,yes,no,300234065980590,GPS,TUT,MOSAiC,North
2019-10-02T15:29:57Z,1570030197,2019,15,30,275.6458,275.6458,85.17889,134.31955,-999.00,-0.29,-999.0,no,yes,no,300234065980590,GPS,TUT,MOSAiC,North
2019-10-02T16:30:00Z,1570033800,2019,16,30,275.6875,275.6875,85.18002,134.31585,-999.00,-0.27,-999.0,no,yes,no,300234065980590,GPS,TUT,MOSAiC,North
2019-10-02T17:30:02Z,1570037403,2019,17,30,275.7292,275.7292,85.18051,134.31405,-999.00,-0.26,-999.0,no,yes,no,300234065980590,GPS,TUT,MOSAiC,North
2019-10-02T18:29:57Z,1570040997,2019,18,30,275.7708,275.7708,85.18017,134.30806,-999.00,-0.24,-999.0,no,yes,no,300234065980590,GPS,TUT,MOSAiC,North
2019-10-02T19:30:00Z,1570044600,2019,19,30,275.8125,275.8125,85.18035,134.30191,-999.00,-0.23,-999.0,no,yes,no,300234065980590,GPS,TUT,MOSAiC,North
2019-10-02T20:30:02Z,1570048203,2019,20,30,275.8542,275.8542,85.18038,134.27954,-999.00,-0.22,-999.0,no,yes,no,300234065980590,GPS,TUT,MOSAiC,North
2019-10-02T21:29:57Z,1570051797,2019,21,30,275.8958,275.8958,85.18082,134.25463,-999.00,-0.21,-999.0,no,yes,no,300234065980590,GPS,TUT,MOSAiC,North
2019-10-02T22:30:00Z,1570055400,2019,22,30,275.9375,275.9375,85.18187,134.22753,-999.00,-0.21,-999.0,no,yes,no,300234065980590,GPS,TUT,MOSAiC,North
2019-10-02T23:30:02Z,1570059003,2019,23,30,275.9792,275.9792,85.18251,134.20337,-999.00,-0.21,-999.0,no,yes,no,300234065980590,GPS,TUT,MOSAiC,North
2019-10-03T00:29:57Z,1570062597,2019,0,30,276.0208,276.0208,85.18391,134.18058,-999.00,-0.21,-999.0,no,yes,no,300234065980590,GPS,TUT,MOSAiC,North
2019-10-03T01:00:02Z,1570064403,2019,1,0,276.0417,276.0417,85.14314,133.92704,-999.00,-0.24,-999.0,no,yes,no,300234065980590,GPS,TUT,MOSAiC,North
2019-10-03T01:30:00Z,1570066200,2019,1,30,276.0625,276.0625,85.1855,134.16293,-999.00,-0.21,-999.0,no,yes,no,300234065980590,GPS,TUT,MOSAiC,North
2019-10-03T02:30:02Z,1570069803,2019,2,30,276.1042,276.1042,85.18675,134.14161,-999.00,-0.16,-999.0,no,yes,no,300234065980590,GPS,TUT,MOSAiC,North
2019-10-03T03:29:57Z,1570073397,2019,3,30,276.1458,276.1458,85.18729,134.12924,-999.00,-0.19,-999.0,no,yes,no,300234065980590,GPS,TUT,MOSAiC,North
2019-10-03T04:30:00Z,1570077000,2019,4,30,276.1875,276.1875,85.18685,134.11781,-999.00,-0.21,-999.0,no,yes,no,300234065980590,GPS,TUT,MOSAiC,North
2019-10-03T05:30:02Z,1570080603,2019,5,30,276.2292,276.2292,85.17317,134.0786,-999.00,-0.23,-999.0,no,yes,no,300234065980590,GPS,TUT,MOSAiC,North
2019-10-03T06:29:57Z,1570084197,2019,6,30,276.2708,276.2708,85.14857,134.0009,-999.00,-0.23,-999.0,no,yes,no,300234065980590,GPS,TUT,MOSAiC,North
2019-10-03T07:30:00Z,1570087800,2019,7,30,276.3125,276.3125,85.14669,133.97565,-999.00,-0.24,-999.0,no,yes,no,300234065980590,GPS,TUT,MOSAiC,North
2019-10-03T08:30:02Z,1570091403,2019,8,30,276.3542,276.3542,85.1445,133.9538,-999.00,-0.24,-999.0,no,yes,no,300234065980590,GPS,TUT,MOSAiC,North
2019-10-03T09:29:57Z,1570094997,2019,9,30,276.3958,276.3958,85.14314,133.92704,-999.00,-0.24,-999.0,no,yes,no,300234065980590,GPS,TUT,MOSAiC,North
2019-10-03T10:59:57Z,1570100397,2019,11,0,276.4583,276.4583,85.14106,133.87287,-999.00,-0.26,-999.0,no,yes,no,300234065980590,GPS,TUT,MOSAiC,North
2019-10-03T11:30:02Z,1570102203,2019,11,30,276.4792,276.4792,85.14259,133.83579,-999.00,-0.26,-999.0,no,yes,no,300234065980590,GPS,TUT,MOSAiC,North
2019-10-03T12:29:57Z,1570105797,2019,12,30,276.5208,276.5208,85.14244,133.7909,-999.00,-0.29,-999.0,no,yes,no,300234065980590,GPS,TUT,MOSAiC,North
2019-10-03T12:29:57Z,1570105797,2019,12,30,276.5208,276.5208,85.14245,133.79087,-999.00,-0.28,-999.0,no,yes,no,300234065980590,GPS,TUT,MOSAiC,North
2019-10-03T14:30:02Z,1570113003,2019,14,30,276.6042,276.6042,85.14201,133.70363,-999.00,-0.31,-999.0,no,yes,no,300234065980590,GPS,TUT,MOSAiC,North
2019-10-03T15:29:57Z,1570116597,2019,15,30,276.6458,276.6458,85.14186,133.65979,-999.00,-0.31,-999.0,no,yes,no,300234065980590,GPS,TUT,MOSAiC,North
2019-10-03T16:30:00Z,1570120200,2019,16,30,276.6875,276.6875,85.14122,133.62062,-999.00,-0.32,-999.0,no,yes,no,300234065980590,GPS,TUT,MOSAiC,North
2019-10-03T17:30:02Z,1570123803,2019,17,30,276.7292,276.7292,85.13955,133.58368,-999.00,-0.22,-999.0,no,yes,no,300234065980590,GPS,TUT,MOSAiC,North
2019-10-03T18:29:57Z,1570127397,2019,18,30,276.7708,276.7708,85.13791,133.5382,-999.00,-0.29,-999.0,no,yes,no,300234065980590,GPS,TUT,MOSAiC,North
2019-10-03T19:30:00Z,1570131000,2019,19,30,276.8125,276.8125,85.13617,133.49085,-999.00,-0.33,-999.0,no,yes,no,300234065980590,GPS,TUT,MOSAiC,North
2019-10-03T20:30:02Z,1570134603,2019,20,30,276.8542,276.8542,85.13455,133.43169,-999.00,-0.34,-999.0,no,yes,no,300234065980590,GPS,TUT,MOSAiC,North
2019-10-03T21:29:57Z,1570138197,2019,21,30,276.8958,276.8958,85.13329,133.3642,-999.00,-0.34,-999.0,no,yes,no,300234065980590,GPS,TUT,MOSAiC,North
2019-10-03T22:30:00Z,1570141800,2019,22,30,276.9375,276.9375,85.132,133.28856,-999.00,-0.35,-999.0,no,yes,no,300234065980590,GPS,TUT,MOSAiC,North
2019-10-03T23:30:02Z,1570145403,2019,23,30,276.9792,276.9792,85.13151,133.20486,-999.00,-0.36,-999.0,no,yes,no,300234065980590,GPS,TUT,MOSAiC,North
2019-10-04T00:29:57Z,1570148997,2019,0,30,277.0208,277.0208,85.13126,133.12352,-999.00,-0.38,-999.0,no,yes,no,300234065980590,GPS,TUT,MOSAiC,North
2019-10-04T01:30:00Z,1570152600,2019,1,30,277.0625,277.0625,85.12904,133.09238,-999.00,-0.4,-999.0,no,yes,no,300234065980590,GPS,TUT,MOSAiC,North
2019-10-04T02:30:02Z,1570156203,2019,2,30,277.1042,277.1042,85.126,133.00529,-999.00,-0.42,-999.0,no,yes,no,300234065980590,GPS,TUT,MOSAiC,North
2019-10-04T03:29:57Z,1570159797,2019,3,30,277.1458,277.1458,85.1273,132.93618,-999.00,-0.44,-999.0,no,yes,no,300234065980590,GPS,TUT,MOSAiC,North
2019-10-04T04:30:00Z,1570163400,2019,4,30,277.1875,277.1875,85.12684,132.87327,-999.00,-0.43,-999.0,no,yes,no,300234065980590,GPS,TUT,MOSAiC,North
2019-10-04T05:30:02Z,1570167003,2019,5,30,277.2292,277.2292,85.12664,132.8162,-999.00,-0.42,-999.0,no,yes,no,300234065980590,GPS,TUT,MOSAiC,North
2019-10-04T06:29:57Z,1570170597,2019,6,30,277.2708,277.2708,85.12568,132.75347,-999.00,-0.41,-999.0,no,yes,no,300234065980590,GPS,TUT,MOSAiC,North
2019-10-04T07:30:00Z,1570174200,2019,7,30,277.3125,277.3125,85.12497,132.69123,-999.00,-0.41,-999.0,no,yes,no,300234065980590,GPS,TUT,MOSAiC,North
2019-10-04T08:30:02Z,1570177803,2019,8,30,277.3542,277.3542,85.12406,132.63223,-999.00,-0.41,-999.0,no,yes,no,300234065980590,GPS,TUT,MOSAiC,North
2019-10-04T09:29:57Z,1570181397,2019,9,30,277.3958,277.3958,85.12261,132.55932,-999.00,-0.43,-999.0,no,yes,no,300234065980590,GPS,TUT,MOSAiC,North
2019-10-04T10:30:00Z,1570185000,2019,10,30,277.4375,277.4375,85.12227,132.50194,-999.00,-0.56,-999.0,no,yes,no,300234065980590,GPS,TUT,MOSAiC,North
2019-10-04T10:30:00Z,1570185000,2019,10,30,277.4375,277.4375,85.12227,132.50198,-999.00,-0.5,-999.0,no,yes,no,300234065980590,GPS,TUT,MOSAiC,North
2019-10-04T12:29:57Z,1570192197,2019,12,30,277.5208,277.5208,85.08079,133.46848,-999.00,-0.66,-999.0,no,yes,no,300234065980590,GPS,TUT,MOSAiC,North
2019-10-04T12:29:57Z,1570192197,2019,12,30,277.5208,277.5208,85.08083,133.46844,-999.00,-0.61,-999.0,no,yes,no,300234065980590,GPS,TUT,MOSAiC,North
2019-10-04T14:30:02Z,1570199403,2019,14,30,277.6042,277.6042,85.01124,133.35142,-999.00,-0.68,-999.0,no,yes,no,300234065980590,GPS,TUT,MOSAiC,North
2019-10-04T15:29:57Z,1570202997,2019,15,30,277.6458,277.6458,85.01169,133.29604,-999.00,-0.7,-999.0,no,yes,no,300234065980590,GPS,TUT,MOSAiC,North
2019-10-04T16:30:00Z,1570206600,2019,16,30,277.6875,277.6875,85.01177,133.24101,-999.00,-0.72,-999.0,no,yes,no,300234065980590,GPS,TUT,MOSAiC,North
2019-10-04T17:30:02Z,1570210203,2019,17,30,277.7292,277.7292,85.01203,133.1898,-999.00,-0.34,-999.0,no,yes,no,300234065980590,GPS,TUT,MOSAiC,North
2019-10-04T18:29:57Z,1570213797,2019,18,30,277.7708,277.7708,85.01187,133.14193,-999.00,-0.75,-999.0,no,yes,no,300234065980590,GPS,TUT,MOSAiC,North
2019-10-04T19:30:00Z,1570217400,2019,19,30,277.8125,277.8125,85.01219,133.0927,-999.00,-0.77,-999.0,no,yes,no,300234065980590,GPS,TUT,MOSAiC,North
2019-10-04T20:30:02Z,1570221003,2019,20,30,277.8542,277.8542,85.01219,133.04449,-999.00,-0.77,-999.0,no,yes,no,300234065980590,GPS,TUT,MOSAiC,North
2019-10-04T21:29:57Z,1570224597,2019,21,30,277.8958,277.8958,85.01285,132.99658,-999.00,-0.78,-999.0,no,yes,no,300234065980590,GPS,TUT,MOSAiC,North
2019-10-04T22:30:00Z,1570228200,2019,22,30,277.9375,277.9375,85.01353,132.94836,-999.00,-0.82,-999.0,no,yes,no,300234065980590,GPS,TUT,MOSAiC,North
2019-10-04T22:30:00Z,1570228200,2019,22,30,277.9375,277.9375,85.01353,132.94838,-999.00,-0.79,-999.0,no,yes,no,300234065980590,GPS,TUT,MOSAiC,North
2019-10-05T00:29:57Z,1570235397,2019,0,30,278.0208,278.0208,85.00162,132.98111,-999.00,-0.89,-999.0,no,yes,no,300234065980590,GPS,TUT,MOSAiC,North
2019-10-05T00:29:57Z,1570235397,2019,0,30,278.0208,278.0208,85.00162,132.98111,-999.00,-0.86,-999.0,no,yes,no,300234065980590,GPS,TUT,MOSAiC,North
2019-10-05T02:30:02Z,1570242603,2019,2,30,278.1042,278.1042,85.00616,132.91283,-999.00,-0.9,-999.0,no,yes,no,300234065980590,GPS,TUT,MOSAiC,North
2019-10-05T03:29:57Z,1570246197,2019,3,30,278.1458,278.1458,85.00841,132.89068,-999.00,-0.91,-999.0,no,yes,no,300234065980590,GPS,TUT,MOSAiC,North
2019-10-05T04:30:00Z,1570249800,2019,4,30,278.1875,278.1875,85.01027,132.8742,-999.00,-0.91,-999.0,no,yes,no,300234065980590,GPS,TUT,MOSAiC,North
2019-10-05T05:30:02Z,1570253403,2019,5,30,278.2292,278.2292,85.01194,132.85539,-999.00,-0.91,-999.0,no,yes,no,300234065980590,GPS,TUT,MOSAiC,North
2019-10-05T06:29:57Z,1570256997,2019,6,30,278.2708,278.2708,85.01256,132.84602,-999.00,-0.91,-999.0,no,yes,no,300234065980590,GPS,TUT,MOSAiC,North
2019-10-05T07:30:00Z,1570260600,2019,7,30,278.3125,278.3125,85.01322,132.83327,-999.00,-0.91,-999.0,no,yes,no,300234065980590,GPS,TUT,MOSAiC,North
2019-10-05T08:30:02Z,1570264203,2019,8,30,278.3542,278.3542,85.0141,132.81536,-999.00,-0.92,-999.0,no,yes,no,300234065980590,GPS,TUT,MOSAiC,North
2019-10-05T09:29:57Z,1570267797,2019,9,30,278.3958,278.3958,85.01444,132.79512,-999.00,-0.93,-999.0,no,yes,no,300234065980590,GPS,TUT,MOSAiC,North
2019-10-05T10:30:00Z,1570271400,2019,10,30,278.4375,278.4375,85.01549,132.77568,-999.00,-0.93,-999.0,no,yes,no,300234065980590,GPS,TUT,MOSAiC,North
2019-10-05T11:30:02Z,1570275003,2019,11,30,278.4792,278.4792,85.01677,132.76314,-999.00,-0.92,-999.0,no,yes,no,300234065980590,GPS,TUT,MOSAiC,North
2019-10-05T12:29:57Z,1570278597,2019,12,30,278.5208,278.5208,85.01852,132.74698,-999.00,-0.89,-999.0,no,yes,no,300234065980590,GPS,TUT,MOSAiC,North
2019-10-05T13:30:00Z,1570282200,2019,13,30,278.5625,278.5625,85.02052,132.73972,-999.00,-0.86,-999.0,no,yes,no,300234065980590,GPS,TUT,MOSAiC,North
2019-10-05T14:30:02Z,1570285803,2019,14,30,278.6042,278.6042,85.02271,132.73036,-999.00,-0.81,-999.0,no,yes,no,300234065980590,GPS,TUT,MOSAiC,North
2019-10-05T15:29:57Z,1570289397,2019,15,30,278.6458,278.6458,85.02485,132.73128,-999.00,-0.76,-999.0,no,yes,no,300234065980590,GPS,TUT,MOSAiC,North
2019-10-05T16:30:00Z,1570293000,2019,16,30,278.6875,278.6875,85.02711,132.73812,-999.00,-0.72,-999.0,no,yes,no,300234065980590,GPS,TUT,MOSAiC,North
2019-10-05T17:30:02Z,1570296603,2019,17,30,278.7292,278.7292,85.02874,132.74639,-999.00,-0.7,-999.0,no,yes,no,300234065980590,GPS,TUT,MOSAiC,North
2019-10-05T18:29:57Z,1570300197,2019,18,30,278.7708,278.7708,85.02985,132.75497,-999.00,-0.68,-999.0,no,yes,no,300234065980590,GPS,TUT,MOSAiC,North
2019-10-05T19:30:00Z,1570303800,2019,19,30,278.8125,278.8125,85.03048,132.76237,-999.00,-0.66,-999.0,no,yes,no,300234065980590,GPS,TUT,MOSAiC,North
2019-10-05T20:30:02Z,1570307403,2019,20,30,278.8542,278.8542,85.03082,132.76525,-999.00,-0.65,-999.0,no,yes,no,300234065980590,GPS,TUT,MOSAiC,North
2019-10-05T21:29:57Z,1570310997,2019,21,30,278.8958,278.8958,85.03097,132.76396,-999.00,-0.63,-999.0,no,yes,no,300234065980590,GPS,TUT,MOSAiC,North
2019-10-05T22:30:00Z,1570314600,2019,22,30,278.9375,278.9375,85.03097,132.76347,-999.00,-0.61,-999.0,no,yes,no,300234065980590,GPS,TUT,MOSAiC,North
2019-10-06T00:29:57Z,1570321797,2019,0,30,279.0208,279.0208,85.03128,132.76783,-999.00,-0.59,-999.0,no,yes,no,300234065980590,GPS,TUT,MOSAiC,North
2019-10-06T00:29:57Z,1570321797,2019,0,30,279.0208,279.0208,85.03128,132.76781,-999.00,-0.59,-999.0,no,yes,no,300234065980590,GPS,TUT,MOSAiC,North
2019-10-06T02:30:02Z,1570329003,2019,2,30,279.1042,279.1042,85.03283,132.78108,-999.00,-0.61,-999.0,no,yes,no,300234065980590,GPS,TUT,MOSAiC,North
2019-10-06T03:29:57Z,1570332597,2019,3,30,279.1458,279.1458,85.05374,133.08224,-999.00,-0.61,-999.0,no,yes,no,300234065980590,GPS,TUT,MOSAiC,North
2019-10-06T04:30:00Z,1570336200,2019,4,30,279.1875,279.1875,85.03631,134.07549,-999.00,-0.62,-999.0,no,yes,no,300234065980590,GPS,TUT,MOSAiC,North
2019-10-06T05:30:02Z,1570339803,2019,5,30,279.2292,279.2292,85.01897,134.63718,-999.00,-0.63,-999.0,no,yes,no,300234065980590,GPS,TUT,MOSAiC,North
2019-10-06T06:29:57Z,1570343397,2019,6,30,279.2708,279.2708,85.01476,134.65315,-999.00,-0.65,-999.0,no,yes,no,300234065980590,GPS,TUT,MOSAiC,North
2019-10-06T06:29:57Z,1570343397,2019,6,30,279.2708,279.2708,85.01476,134.65315,-999.00,-0.66,-999.0,no,yes,no,300234065980590,GPS,TUT,MOSAiC,North
2019-10-06T08:30:02Z,1570350603,2019,8,30,279.3542,279.3542,85.01261,134.6613,-999.00,-0.66,-999.0,no,yes,no,300234065980590,GPS,TUT,MOSAiC,North
2019-10-06T09:29:57Z,1570354197,2019,9,30,279.3958,279.3958,85.01142,134.66323,-999.00,-0.66,-999.0,no,yes,no,300234065980590,GPS,TUT,MOSAiC,North
2019-10-06T10:30:00Z,1570357800,2019,10,30,279.4375,279.4375,85.01052,134.66684,-999.00,-0.64,-999.0,no,yes,no,300234065980590,GPS,TUT,MOSAiC,North
2019-10-06T11:30:02Z,1570361403,2019,11,30,279.4792,279.4792,-85.0099,134.67121,-999.00,-0.62,-999.0,no,yes,no,300234065980590,GPS,TUT,MOSAiC,North
2019-10-06T11:30:02Z,1570361403,2019,11,30,279.4792,279.4792,85.00991,134.67121,-999.00,-0.63,-999.0,no,yes,no,300234065980590,GPS,TUT,MOSAiC,North
2019-10-06T13:30:00Z,1570368600,2019,13,30,279.5625,279.5625,85.00905,134.68736,-999.00,-0.62,-999.0,no,yes,no,300234065980590,GPS,TUT,MOSAiC,North
2019-10-06T15:29:57Z,1570375797,2019,15,30,279.6458,279.6458,85.00886,134.71579,-999.00,-0.61,-999.0,no,yes,no,300234065980590,GPS,TUT,MOSAiC,North
2019-10-06T16:30:00Z,1570379400,2019,16,30,279.6875,279.6875,85.00872,134.73494,-999.00,-0.61,-999.0,no,yes,no,300234065980590,GPS,TUT,MOSAiC,North
2019-10-06T17:30:02Z,1570383003,2019,17,30,279.7292,279.7292,85.00842,134.75788,-999.00,-0.59,-999.0,no,yes,no,300234065980590,GPS,TUT,MOSAiC,North
2019-10-06T18:29:57Z,1570386597,2019,18,30,279.7708,279.7708,85.0079,134.78258,-999.00,-0.59,-999.0,no,yes,no,300234065980590,GPS,TUT,MOSAiC,North
2019-10-06T19:30:00Z,1570390200,2019,19,30,279.8125,279.8125,85.00684,134.81065,-999.00,-0.57,-999.0,no,yes,no,300234065980590,GPS,TUT,MOSAiC,North
2019-10-06T20:30:02Z,1570393803,2019,20,30,279.8542,279.8542,85.00548,134.84091,-999.00,-0.58,-999.0,no,yes,no,300234065980590,GPS,TUT,MOSAiC,North
2019-10-06T21:29:57Z,1570397397,2019,21,30,279.8958,279.8958,85.00383,134.86775,-999.00,-0.59,-999.0,no,yes,no,300234065980590,GPS,TUT,MOSAiC,North
2019-10-06T22:30:00Z,1570401000,2019,22,30,279.9375,279.9375,85.00218,134.88941,-999.00,-0.59,-999.0,no,yes,no,300234065980590,GPS,TUT,MOSAiC,North
2019-10-06T23:30:02Z,1570404603,2019,23,30,279.9792,279.9792,85.00063,134.90972,-999.00,-0.59,-999.0,no,yes,no,300234065980590,GPS,TUT,MOSAiC,North
2019-10-07T00:29:57Z,1570408197,2019,0,30,280.0208,280.0208,84.94753,137.9186,-999.00,-0.66,-999.0,no,yes,no,300234065980590,GPS,TUT,MOSAiC,North
2019-10-07T01:00:02Z,1570410003,2019,1,0,280.0417,280.0417,84.99576,137.12522,-999.00,-0.53,-999.0,no,yes,no,300234065980590,GPS,TUT,MOSAiC,North
2019-10-07T02:31:03Z,1570415463,2019,2,31,280.1049,280.1049,85.06435,137.60731,-999.00,0.13,-999.0,no,yes,no,300234065980590,GPS,TUT,MOSAiC,North
2019-10-07T03:29:57Z,1570418997,2019,3,30,280.1458,280.1458,85.00839,136.90678,-999.00,0.08,-999.0,no,yes,no,300234065980590,GPS,TUT,MOSAiC,North
2019-10-07T04:30:00Z,1570422600,2019,4,30,280.1875,280.1875,85.007,136.94232,-999.00,-0.15,-999.0,no,yes,no,300234065980590,GPS,TUT,MOSAiC,North
2019-10-07T05:30:02Z,1570426203,2019,5,30,280.2292,280.2292,85.00519,136.98056,-999.00,-0.35,-999.0,no,yes,no,300234065980590,GPS,TUT,MOSAiC,North
2019-10-07T05:30:02Z,1570426203,2019,5,30,280.2292,280.2292,85.0052,136.98053,-999.00,-0.28,-999.0,no,yes,no,300234065980590,GPS,TUT,MOSAiC,North
2019-10-07T07:30:00Z,1570433400,2019,7,30,280.3125,280.3125,85.0007,137.05599,-999.00,-0.44,-999.0,no,yes,no,300234065980590,GPS,TUT,MOSAiC,North
2019-10-07T07:30:00Z,1570433400,2019,7,30,280.3125,280.3125,85.0007,137.05597,-999.00,-0.39,-999.0,no,yes,no,300234065980590,GPS,TUT,MOSAiC,North
2019-10-07T09:29:57Z,1570440597,2019,9,30,280.3958,280.3958,84.99576,137.12522,-999.00,-0.49,-999.0,no,yes,no,300234065980590,GPS,TUT,MOSAiC,North
2019-10-07T10:59:57Z,1570445997,2019,11,0,280.4583,280.4583,84.99215,137.17725,-999.00,-0.53,-999.0,no,yes,no,300234065980590,GPS,TUT,MOSAiC,North
2019-10-07T11:30:02Z,1570447803,2019,11,30,280.4792,280.4792,84.991,137.19752,-999.00,-0.54,-999.0,no,yes,no,300234065980590,GPS,TUT,MOSAiC,North
2019-10-07T12:29:57Z,1570451397,2019,12,30,280.5208,280.5208,84.991,137.19752,-999.00,-0.53,-999.0,no,yes,no,300234065980590,GPS,TUT,MOSAiC,North
2019-10-07T13:30:00Z,1570455000,2019,13,30,280.5625,280.5625,84.98553,137.30481,-999.00,-0.57,-999.0,no,yes,no,300234065980590,GPS,TUT,MOSAiC,North
2019-10-07T14:30:02Z,1570458603,2019,14,30,280.6042,280.6042,84.98553,137.30482,-999.00,-0.59,-999.0,no,yes,no,300234065980590,GPS,TUT,MOSAiC,North
2019-10-07T15:29:57Z,1570462197,2019,15,30,280.6458,280.6458,84.97974,137.42107,-999.00,-0.61,-999.0,no,yes,no,300234065980590,GPS,TUT,MOSAiC,North
2019-10-07T16:30:00Z,1570465800,2019,16,30,280.6875,280.6875,84.97633,137.48302,-999.00,-0.63,-999.0,no,yes,no,300234065980590,GPS,TUT,MOSAiC,North
2019-10-07T17:30:02Z,1570469403,2019,17,30,280.7292,280.7292,84.97217,137.54278,-999.00,-0.65,-999.0,no,yes,no,300234065980590,GPS,TUT,MOSAiC,North
2019-10-07T18:29:57Z,1570472997,2019,18,30,280.7708,280.7708,84.88717,137.54278,-999.00,-0.67,-999.0,no,yes,no,300234065980590,GPS,TUT,MOSAiC,North
2019-10-07T19:30:00Z,1570476600,2019,19,30,280.8125,280.8125,84.9636,137.65766,-999.00,-0.69,-999.0,no,yes,no,300234065980590,GPS,TUT,MOSAiC,North
2019-10-07T20:30:02Z,1570480203,2019,20,30,280.8542,280.8542,84.9636,137.65766,-999.00,-0.69,-999.0,no,yes,no,300234065980590,GPS,TUT,MOSAiC,North
2019-10-07T21:29:57Z,1570483797,2019,21,30,280.8958,280.8958,84.95489,137.77435,-999.00,-0.7,-999.0,no,yes,no,300234065980590,GPS,TUT,MOSAiC,North
2019-10-07T22:30:00Z,1570487400,2019,22,30,280.9375,280.9375,84.95489,137.77437,-999.00,-0.69,-999.0,no,yes,no,300234065980590,GPS,TUT,MOSAiC,North
2019-10-07T23:30:02Z,1570491003,2019,23,30,280.9792,280.9792,84.94754,137.91857,-999.00,-0.68,-999.0,no,yes,no,300234065980590,GPS,TUT,MOSAiC,North
2019-10-08T01:30:00Z,1570498200,2019,1,30,281.0625,281.0625,84.93935,138.10765,-999.00,-0.64,-999.0,no,yes,no,300234065980590,GPS,TUT,MOSAiC,North
2019-10-08T02:30:02Z,1570501803,2019,2,30,281.1042,281.1042,84.93486,138.2071,-999.00,-0.59,-999.0,no,yes,no,300234065980590,GPS,TUT,MOSAiC,North
2019-10-08T03:29:57Z,1570505397,2019,3,30,281.1458,281.1458,84.93014,138.30835,-999.00,-0.54,-999.0,no,yes,no,300234065980590,GPS,TUT,MOSAiC,North
2019-10-08T04:30:00Z,1570509000,2019,4,30,281.1875,281.1875,-84.93014,138.30835,-999.00,-0.5,-999.0,no,yes,no,300234065980590,GPS,TUT,MOSAiC,North
2019-10-08T05:30:02Z,1570512603,2019,5,30,281.2292,281.2292,84.91974,138.49577,-999.00,-0.47,-999.0,no,yes,no,300234065980590,GPS,TUT,MOSAiC,North
2019-10-08T06:29:57Z,1570516197,2019,6,30,281.2708,281.2708,84.91974,138.4958,-999.00,-0.44,-999.0,no,yes,no,300234065980590,GPS,TUT,MOSAiC,North
2019-10-08T07:30:00Z,1570519800,2019,7,30,281.3125,281.3125,84.90801,138.65251,-999.00,-0.41,-999.0,no,yes,no,300234065980590,GPS,TUT,MOSAiC,North
2019-10-08T08:30:02Z,1570523403,2019,8,30,281.3542,281.3542,84.90801,138.57084,-999.00,-0.39,-999.0,no,yes,no,300234065980590,GPS,TUT,MOSAiC,North
2019-10-08T09:29:57Z,1570526997,2019,9,30,281.3958,281.3958,84.8959,138.75572,-999.00,-0.37,-999.0,no,yes,no,300234065980590,GPS,TUT,MOSAiC,North
2019-10-08T10:30:00Z,1570530600,2019,10,30,281.4375,281.4375,84.89018,138.78767,-999.00,-0.34,-999.0,no,yes,no,300234065980590,GPS,TUT,MOSAiC,North
2019-10-08T11:30:02Z,1570534203,2019,11,30,281.4792,281.4792,84.89017,138.78769,-999.00,-0.32,-999.0,no,yes,no,300234065980590,GPS,TUT,MOSAiC,North
2019-10-08T12:29:57Z,1570537797,2019,12,30,281.5208,281.5208,84.87894,138.80804,-999.00,-0.33,-999.0,no,yes,no,300234065980590,GPS,TUT,MOSAiC,North
2019-10-08T13:30:00Z,1570541400,2019,13,30,281.5625,281.5625,84.87894,-138.80804,-999.00,-0.34,-999.0,no,yes,no,300234065980590,GPS,TUT,MOSAiC,North
2019-10-08T14:30:02Z,1570545003,2019,14,30,281.6042,281.6042,84.8686,138.79692,-999.00,-0.38,-999.0,no,yes,no,300234065980590,GPS,TUT,MOSAiC,North
2019-10-08T15:29:57Z,1570548597,2019,15,30,281.6458,281.6458,84.8686,138.79692,-999.00,-0.4,-999.0,no,yes,no,300234065980590,GPS,TUT,MOSAiC,North
2019-10-08T16:30:00Z,1570552200,2019,16,30,281.6875,281.6875,84.86041,138.78227,-999.00,-0.42,-999.0,no,yes,no,300234065980590,GPS,TUT,MOSAiC,North
2019-10-08T17:30:02Z,1570555803,2019,17,30,281.7292,281.7292,84.86041,138.78227,-999.00,-0.46,-999.0,no,yes,no,300234065980590,GPS,TUT,MOSAiC,North
2019-10-08T18:29:57Z,1570559397,2019,18,30,281.7708,281.7708,84.85362,138.7746,-999.00,-0.5,-999.0,no,yes,no,300234065980590,GPS,TUT,MOSAiC,North
2019-10-08T19:30:00Z,1570563000,2019,19,30,281.8125,281.8125,84.85018,138.77194,-999.00,-0.53,-999.0,no,yes,no,300234065980590,GPS,TUT,MOSAiC,North
2019-10-08T20:30:02Z,1570566603,2019,20,30,281.8542,281.8542,84.84651,138.76631,-999.00,-0.54,-999.0,no,yes,no,300234065980590,GPS,TUT,MOSAiC,North
2019-10-08T21:29:57Z,1570570197,2019,21,30,281.8958,281.8958,84.84284,138.75487,-999.00,-0.55,-999.0,no,yes,no,300234065980590,GPS,TUT,MOSAiC,North
2019-10-08T22:30:00Z,1570573800,2019,22,30,281.9375,281.9375,84.83965,138.73903,-999.00,-0.54,-999.0,no,yes,no,300234065980590,GPS,TUT,MOSAiC,North
2019-10-08T23:30:02Z,1570577403,2019,23,30,281.9792,281.9792,84.83965,138.73903,-999.00,-0.54,-999.0,no,yes,no,300234065980590,GPS,TUT,MOSAiC,North
2019-10-09T00:29:57Z,1570580997,2019,0,30,282.0208,282.0208,84.8351,138.68942,-999.00,-0.55,-999.0,no,yes,no,300234065980590,GPS,TUT,MOSAiC,North
2019-10-09T01:30:00Z,1570584600,2019,1,30,282.0625,282.0625,84.8351,138.68942,-999.00,-0.56,-999.0,no,yes,no,300234065980590,GPS,TUT,MOSAiC,North
2019-10-09T02:30:02Z,1570588203,2019,2,30,282.1042,282.1042,84.83305,138.63281,-999.00,-0.57,-999.0,no,yes,no,300234065980590,GPS,TUT,MOSAiC,North
2019-10-09T03:29:57Z,1570591797,2019,3,30,282.1458,282.1458,84.83305,138.63278,-999.00,-0.59,-999.0,no,yes,no,300234065980590,GPS,TUT,MOSAiC,North
2019-10-09T04:30:00Z,1570595400,2019,4,30,282.1875,282.1875,84.83302,138.58911,-999.00,-0.62,-999.0,no,yes,no,300234065980590,GPS,TUT,MOSAiC,North
2019-10-09T05:30:02Z,1570599003,2019,5,30,282.2292,282.2292,84.83367,138.57745,-999.00,-0.68,-999.0,no,yes,no,300234065980590,GPS,TUT,MOSAiC,North
2019-10-09T06:29:57Z,1570602597,2019,6,30,282.2708,282.2708,-84.83367,138.57745,-999.00,-0.71,-999.0,no,yes,no,300234065980590,GPS,TUT,MOSAiC,North
2019-10-09T07:30:00Z,1570606200,2019,7,30,282.3125,282.3125,84.83362,138.56232,-999.00,-0.77,-999.0,no,yes,no,300234065980590,GPS,TUT,MOSAiC,North
2019-10-09T08:30:02Z,1570609803,2019,8,30,282.3542,282.3542,84.83258,138.55354,-999.00,-0.79,-999.0,no,yes,no,300234065980590,GPS,TUT,MOSAiC,North
2019-10-09T09:29:57Z,1570613397,2019,9,30,282.3958,282.3958,84.83105,138.54326,-999.00,-0.81,-999.0,no,yes,no,300234065980590,GPS,TUT,MOSAiC,North